Location: D�rnast
(49.6426°N, 11.9755°E)
Time: 15:39:56
(UTC+00:00)

Daily predictions for brighter satellites

Satellite Brightness Start Highest point End
(mag) Time Altitude Azimuth Time Altitude Azimuth Time Altitude Azimuth
ADEOS Rocket 4.1 17:03:27 10° NNE 17:10:29 35° E 17:17:21 10° SSE
Cosmos 1943 Rocket 2.3 17:09:31 10° S 17:14:56 55° ESE 17:20:21 10° NE
FengYun 1-2 T 4.4 17:09:52 10° SSE 17:15:31 88° WSW 17:21:10 10° NNW
STARLINK-33 3.2 17:13:28 10° W 17:16:44 66° NNW 17:20:01 10° ENE
Cosmos 2016 Rocket 4.0 17:10:45 10° S 17:16:51 85° E 17:23:03 10° N
STARLINK-1007 3.0 17:15:07 10° WSW 17:18:20 70° SSE 17:21:34 10° ENE
STARLINK-80 4.0 17:14:56 10° W 17:18:40 49° N 17:22:24 10° ENE
Cosmos 724 4.3 17:12:55 10° NW 17:18:44 72° NE 17:24:33 10° SE
STARLINK-55 3.3 17:15:31 10° W 17:18:46 64° NNW 17:22:01 10° ENE
STARLINK-66 3.3 17:15:34 10° W 17:18:49 64° NNW 17:22:05 10° ENE
Meteor 1-27 Rocket 3.7 17:14:06 10° N 17:19:39 69° ENE 17:25:15 10° SSE
Cosmos 2227 Rocket 4.1 17:17:43 10° N 17:20:06 13° NNE 17:22:29 10° NE
STARLINK-28 3.3 17:17:10 10° W 17:20:25 61° NNW 17:23:40 10° ENE
STARLINK-58 3.3 17:17:10 10° WSW 17:20:44 83° NNW 17:24:18 10° ENE
Envisat 4.1 17:16:50 10° S 17:21:47 52° W 17:26:46 10° NNW
COSMOS 2487 3.7 17:19:17 10° N 17:22:03 22° ENE 17:24:48 10° ESE
STARLINK-62 3.3 17:18:52 10° WSW 17:22:25 80° NNW 17:26:00 10° ENE
Lacrosse 5 rocket 2.8 17:19:36 10° WNW 17:23:40 33° N 17:27:51 10° ENE
STARLINK-34 3.3 17:20:29 10° WSW 17:24:03 79° NNW 17:27:37 10° ENE
Cosmos 1777 Rocket 4.2 17:21:27 10° NNW 17:26:46 82° WSW 17:32:01 10° SSE
STARLINK-1036 4.4 17:23:40 10° SSW 17:27:27 35° SE 17:31:11 10° ENE
STARLINK-42 3.3 17:24:18 10° W 17:27:31 63° NNW 17:30:45 10° ENE
Cosmos 1340 3.3 17:26:24 10° SSE 17:29:48 33° E 17:33:13 10° NNE
Cosmos 1898 Rocket 4.4 17:26:45 10° N 17:31:16 29° NE 17:35:46 10° ESE
Cosmos 2233 Rocket 4.0 17:25:40 10° S 17:31:41 60° E 17:37:47 10° NNE
Cosmos 44 3.1 17:27:22 10° NW 17:31:47 84° SW 17:36:18 10° SE
NOSS 2-3 (E) 4.2 17:28:16 10° S 17:32:18 39° ESE 17:37:01 10° NE
STARLINK-1044 4.3 17:28:33 10° SSW 17:32:24 38° SE 17:35:58 12° ENE
STARLINK-1010 2.9 17:29:42 10° WSW 17:32:59 85° SSE 17:36:00 12° ENE
STARLINK-1031 4.1 17:30:03 10° SW 17:33:52 42° SE 17:37:24 12° ENE
STARLINK 1040 2.6 17:31:14 10° WSW 17:34:02 80° NNW 17:36:32 13° ENE
Lacrosse 4 Rocket 3.0 17:30:45 10° WSW 17:34:41 36° NW 17:38:44 10° NNE
HJ-1C 4.2 17:31:49 10° SE 17:34:43 29° ENE 17:37:39 10° N
Cosmos 1633 4.4 17:34:41 10° SW 17:38:01 34° WNW 17:41:23 10° N
Sich 1 3.6 17:34:26 10° SSW 17:38:39 61° WNW 17:42:54 10° N
STARLINK-24 3.6 17:36:15 10° WSW 17:40:17 79° NNW 17:43:52 13° ENE
Cosmos 1939 Rocket 2.9 17:36:22 10° SSE 17:40:30 76° ENE 17:44:40 10° N
USA 234 3.9 17:34:49 10° ENE 17:41:01 47° N 17:47:12 10° WNW
STARLINK-1029 2.9 17:38:01 10° WSW 17:41:11 79° SSE 17:43:45 15° ENE
STARLINK-1037 4.1 17:38:18 10° SW 17:42:14 44° SE 17:45:28 14° ENE
STARLINK-29 3.9 17:41:39 10° WNW 17:44:56 48° SSW 17:48:13 10° SE
CZ-4 R/B 2.0 17:41:25 10° S 17:45:35 64° WSW 17:49:44 10° NNW
SL-27 R/B 4.1 17:42:44 10° NW 17:45:50 36° WSW 17:48:54 10° S
Cosmos 1656 Rocket 4.2 17:40:58 10° S 17:46:00 37° ESE 17:51:07 10° NE
STARLINK-1059 4.0 17:43:17 10° SW 17:47:15 47° SE 17:50:19 16° ENE
NOSS 2-3 (D) 4.0 17:43:05 10° SSW 17:47:16 48° ESE 17:52:10 10° NE
STARLINK-1016 3.0 17:45:04 10° WSW 17:48:21 80° NNW 17:50:49 17° ENE
STARLINK-1008 3.1 17:45:26 10° WSW 17:48:46 79° NNW 17:51:15 17° ENE
USA 229 DEB 3.7 17:42:45 10° SW 17:49:21 84° NW 17:56:21 10° NE
USA 229 3.7 17:42:52 10° SW 17:49:27 84° NW 17:56:26 10° NE
STARLINK-81 3.6 17:45:54 10° WSW 17:49:56 76° NNW 17:53:08 16° ENE
Cosmos 1470 Rocket 3.5 17:46:09 10° S 17:50:26 61° E 17:54:48 10° NNE
STARLINK-54 3.7 17:47:46 10° WSW 17:51:49 72° NNW 17:54:56 16° ENE
STARLINK-1025 3.1 17:48:47 10° WSW 17:52:05 77° NNW 17:54:25 18° ENE
STARLINK-1057 3.9 17:48:14 10° SW 17:52:14 50° SSE 17:55:07 18° ENE
STARLINK-75 3.6 17:49:39 10° W 17:53:00 53° N 17:55:21 18° ENE
STARLINK-77 3.6 17:49:14 10° WSW 17:53:16 74° NNW 17:56:20 17° ENE
STARLINK-1017 3.1 17:50:27 10° WSW 17:53:45 75° NNW 17:56:01 19° ENE
STARLINK-22 3.5 17:50:38 10° W 17:53:57 57° NNW 17:56:16 18° ENE
STARLINK-25 3.7 17:50:54 10° WSW 17:54:55 73° NNW 17:57:56 17° ENE
Cosmos 1862 Rocket 3.7 17:50:48 10° NNW 17:55:08 77° W 17:59:29 10° S
COSMO-SKYMED 1 3.3 17:51:01 10° N 17:55:17 58° WNW 17:59:33 10° SSW
STARLINK-41 3.5 17:52:07 10° W 17:55:26 55° NNW 17:57:41 19° ENE
Cosmos 2242 Rocket 3.6 17:50:57 10° N 17:55:29 65° ENE 18:00:02 10° SSE
NOSS 3-1 (A) 3.3 17:50:55 10° SSW 17:56:28 77° SE 18:03:01 10° NE
STARLINK-71 3.7 17:52:47 10° W 17:56:49 69° NNW 17:59:44 18° ENE
STARLINK-1034 3.8 17:53:09 10° SW 17:57:11 53° SSE 17:59:53 20° ENE
STARLINK-52 4.1 17:54:34 10° WNW 17:57:47 42° SSW 18:00:48 11° SE
STARLINK-79 3.7 17:54:12 10° WSW 17:58:13 71° NNW 18:01:06 18° ENE
STARLINK-1048 3.1 17:55:31 10° WSW 17:58:50 71° NNW 18:00:54 21° ENE
STARLINK-78 3.7 17:55:53 10° WSW 17:59:55 70° NNW 18:02:42 19° ENE
STARLINK-1049 3.2 17:57:13 10° WSW 18:00:32 70° NNW 18:02:33 22° ENE
Resurs 01 Rocket 3.4 18:01:18 14° NE 18:01:18 14° NE 18:03:32 10° NNE
STARLINK-57 3.7 17:57:39 10° W 18:01:40 68° NNW 18:04:24 20° ENE
CENTAUR R/B 4.0 17:55:22 10° NW 18:01:51 32° NNE 18:07:34 15° ENE
STARLINK-1068 3.8 17:58:05 10° SW 18:02:09 57° SSE 18:04:40 22° ENE
STARLINK-1051 3.2 17:58:59 10° WSW 18:02:17 69° NNW 18:04:14 22° ENE
Cosmos 1812 4.3 17:58:51 10° NNW 18:02:30 39° W 18:06:06 10° SSW
STARLINK-1028 3.2 17:59:22 10° WSW 18:02:40 69° NNW 18:04:37 23° ENE
STARLINK-64 3.7 17:59:10 10° W 18:02:43 55° NNW 18:04:55 21° ENE
STARLINK-49 3.7 17:59:11 10° W 18:03:12 68° NNW 18:05:52 20° ENE
STARLINK-1021 3.2 18:01:08 10° WSW 18:04:27 67° NNW 18:06:19 24° ENE
Cosmos 2369 Rocket 2.3 17:58:56 10° SSW 18:04:36 84° WNW 18:10:21 10° NNE
STARLINK-26 3.8 18:01:24 10° WNW 18:04:46 46° N 18:06:33 23° ENE
STARLINK-27 3.7 18:00:51 10° W 18:04:51 67° NNW 18:07:28 21° ENE
Ariane Rocket 3.0 18:00:13 10° SSE 18:05:14 61° ENE 18:10:17 10° N
Cosmos 921 Rocket 3.9 18:01:33 10° SW 18:05:59 54° WNW 18:10:27 10° NNE
STARLINK-1019 3.2 18:02:55 10° W 18:06:13 66° NNW 18:08:02 24° ENE
STARLINK-74 3.7 18:02:30 10° W 18:06:31 66° NNW 18:09:03 21° ENE
STARLINK-1012 3.3 18:04:42 10° W 18:08:02 65° NNW 18:09:46 25° ENE
STARLINK-39 3.8 18:04:10 10° W 18:08:11 66° NNW 18:10:39 22° ENE
Lacrosse 5 3.4 18:05:25 10° SSE 18:08:21 16° SE 18:08:21 16° SE
Okean 1-7 3.2 18:04:24 10° N 18:08:36 48° ENE 18:12:47 10° SSE
IRS-1A Rocket 4.2 18:04:03 10° SSE 18:09:28 64° ENE 18:14:56 10° N
STARLINK-31 3.8 18:05:51 10° W 18:09:50 65° NNW 18:12:14 23° ENE
STARLINK-1026 3.3 18:08:17 10° W 18:11:37 63° NNW 18:13:12 27° ENE
STARLINK-69 3.8 18:07:41 10° W 18:11:42 62° NNW 18:14:00 24° ENE
STARLINK-1014 3.3 18:08:31 10° WSW 18:12:00 71° NNW 18:13:43 27° ENE
STARLINK-1060 3.6 18:07:58 10° SW 18:12:04 65° SSE 18:14:13 27° ENE
SJ-6B 3.4 18:11:06 27° E 18:12:10 32° ENE 18:15:34 10° N
Cosmos 1703 Rocket 3.6 18:07:44 10° N 18:12:11 61° ENE 18:16:36 10° SSE
STARLINK-21 3.8 18:09:11 10° W 18:13:11 63° NNW 18:15:26 24° ENE
ARGOS Delta rocket 4.4 18:11:44 24° ESE 18:13:24 31° ENE 18:17:20 10° N
STARLINK-1013 3.3 18:10:07 10° W 18:13:26 62° NNW 18:14:58 28° ENE
ATLAS 3B R/B 4.0 18:08:12 10° NW 18:13:35 25° N 18:17:53 14° ENE
CZ-2D R/B 4.4 18:10:41 10° S 18:14:26 47° W 18:18:14 10° NNW
STARLINK-45 3.9 18:11:04 10° W 18:15:03 60° NNW 18:17:13 25° ENE
STARLINK-1009 3.3 18:11:55 10° W 18:15:14 61° NNW 18:16:41 30° NE
Cosmos 990 Rocket 4.0 18:10:42 10° NNW 18:15:48 59° ENE 18:20:03 15° SE
Cosmos 1833 4.5 18:10:09 10° NNW 18:15:55 72° WSW 18:21:36 10° SSE
STARLINK-70 3.8 18:12:38 10° W 18:16:38 61° NNW 18:18:45 26° ENE
NOSS 7 (D) 3.9 18:14:05 10° NW 18:16:58 79° NE 18:18:06 36° SE
STARLINK-1030 3.6 18:12:57 10° SW 18:17:05 69° SSE 18:19:02 29° ENE
STARLINK-1015 3.4 18:13:45 10° W 18:17:05 60° NNW 18:18:28 31° NE
STARLINK-76 3.8 18:14:10 10° W 18:18:10 61° NNW 18:20:13 27° ENE
STARLINK-23 3.8 18:15:50 10° W 18:19:49 60° NNW 18:21:47 28° ENE
SJ 16-02 1.4 18:16:54 10° NNW 18:21:16 57° ENE 18:23:52 23° SE
NOSS 2-3 (C) 3.7 18:16:56 10° SW 18:21:20 89° SE 18:26:14 12° NE
STARLINK-32 3.9 18:17:30 10° W 18:21:29 60° NNW 18:23:24 28° ENE
STARLINK-1020 3.5 18:17:53 10° WSW 18:22:01 73° SSE 18:23:48 33° ENE
Orbus 7S? 4.3 18:15:49 10° WSW 18:22:53 55° NNW 18:25:07 21° NE
Cosmos 1869 Rocket 4.0 18:18:51 10° SSE 18:22:54 37° E 18:26:57 10° NNE
FREGAT/IRIS 2.8 18:23:34 44° NE 18:23:34 44° NE 18:25:47 10° N
STARLINK-40 3.9 18:19:09 10° W 18:23:08 59° NNW 18:24:59 29° ENE
H-2A R/B 2.1 18:19:08 10° SSE 18:24:26 63° ENE 18:29:51 10° N
STARLINK-1047 3.5 18:20:18 10° WSW 18:24:28 77° SSE 18:26:11 34° ENE
STARLINK-44 3.9 18:20:50 10° W 18:24:49 59° NNW 18:26:35 30° ENE
Cosmos 1937 Rocket 3.6 18:20:18 10° NNW 18:25:29 53° ENE 18:28:21 25° SE
ARGOS 3.2 18:20:31 10° SE 18:25:48 56° ENE 18:31:08 10° N
STARLINK-37 3.9 18:22:36 10° W 18:26:35 58° N 18:28:16 31° NE
STARLINK-48 3.9 18:22:55 10° WNW 18:26:45 52° N 18:28:00 35° ENE
STARLINK-1052 3.5 18:22:52 10° WSW 18:27:01 77° SSE 18:28:36 36° ENE
STARLINK-61 4.0 18:23:32 10° W 18:27:22 51° N 18:28:49 32° NE
STARLINK-36 3.9 18:24:08 10° W 18:28:07 58° N 18:29:45 32° NE
STARLINK-68 3.9 18:26:01 10° W 18:29:59 56° N 18:31:32 33° NE
STARLINK-63 3.9 18:27:34 10° W 18:31:32 56° N 18:33:01 34° NE
Cosmos 2263 4.4 18:26:24 10° SW 18:32:10 73° WNW 18:37:58 10° NNE
Cosmos 1346 Rocket 3.3 18:28:39 10° SSW 18:32:36 61° WNW 18:36:32 10° N
BREEZE-M DEB (TANK) 4.3 18:30:07 10° W 18:32:58 41° SSW 18:37:09 18° SE
STARLINK-35 3.9 18:29:07 10° W 18:33:06 56° N 18:34:31 35° NE
STARLINK-51 3.9 18:30:48 10° W 18:34:46 56° N 18:36:06 36° NE
STARLINK-43 3.2 18:32:13 10° WNW 18:35:56 86° NNE 18:36:38 57° ESE
STARLINK-1023 3.4 18:33:03 10° W 18:36:11 50° N 18:36:38 46° NNE
USA 186 3.4 18:38:08 18° N 18:38:08 18° N 18:38:59 10° N
STARLINK-30 3.9 18:32:27 10° W 18:36:26 56° N 18:37:42 37° NE
STARLINK-1033 3.5 18:32:47 10° WSW 18:36:56 85° SSE 18:38:08 46° ENE
Nadezhda 4 Rocket 4.0 18:31:37 10° N 18:37:53 64° ENE 18:44:09 10° SSE
STARLINK-72 4.0 18:34:07 10° W 18:38:04 55° N 18:39:17 38° NE
STARLINK-50 4.0 18:35:46 10° W 18:39:44 55° N 18:40:51 40° NE
USA 238 DEB 4.2 18:33:19 10° NW 18:40:09 47° NE 18:43:16 31° E
USA 238 4.2 18:33:25 10° NW 18:40:14 47° NNE 18:43:20 31° E
Cosmos 1464 Rocket 3.9 18:34:18 10° S 18:40:40 78° E 18:47:05 10° NNE
Cosmos 44 Rocket 3.1 18:36:24 10° NW 18:41:09 81° NE 18:42:58 38° SE
STARLINK-59 4.0 18:37:33 10° W 18:41:31 54° N 18:42:34 41° NE
STARLINK-56 4.0 18:39:05 10° W 18:43:02 54° N 18:44:02 42° NE
STARLINK-1035 3.6 18:39:53 10° WSW 18:44:09 85° NNW 18:45:13 50° ENE
Cosmos 2026 Rocket 4.5 18:38:36 10° N 18:44:16 35° ENE 18:44:59 34° E
STARLINK-73 4.0 18:40:46 10° W 18:44:44 54° N 18:45:39 43° NE
STARLINK-38 4.0 18:42:27 10° W 18:46:25 54° N 18:47:15 44° NE
STARLINK-1024 3.5 18:42:46 10° WSW 18:46:56 87° NNW 18:47:44 57° ENE
Cosmos 2297 Rocket 2.9 18:42:02 10° NNW 18:47:10 33° NE 18:47:51 32° ENE
STARLINK-65 4.0 18:44:05 10° W 18:48:03 53° N 18:48:49 45° NE
Cosmos 1933 Rocket 4.5 18:44:12 10° SSW 18:48:29 49° WNW 18:52:46 10° N
NOSS 3-1 (C) 4.4 18:43:48 10° WSW 18:49:20 45° NNW 18:55:50 10° NE
STARLINK-53 4.0 18:45:50 10° W 18:49:47 53° N 18:50:28 46° NNE
Meteor 1-20 Rocket 4.4 18:47:37 10° SSW 18:53:05 73° WNW 18:58:41 10° N
STARLINK-33 3.9 18:50:14 10° WNW 18:53:06 43° NNW 18:53:06 43° NNW
STARLINK-1007 3.8 18:51:35 10° W 18:54:28 45° NNW 18:54:28 45° NNW
STARLINK-1027 3.7 18:50:32 10° WSW 18:54:48 75° NNW 18:55:28 60° NE
STARLINK-55 3.9 18:52:16 10° WNW 18:55:01 42° NNW 18:55:01 42° NNW
STARLINK-66 4.0 18:52:20 10° WNW 18:55:06 42° NNW 18:55:06 42° NNW
Cosmos 405 4.0 18:52:35 10° NNW 18:56:01 46° W 18:58:22 18° SSW
ADEOS Rocket 4.0 18:48:39 10° N 18:56:18 63° WNW 19:03:52 10° SW
STARLINK-1032 3.5 18:52:43 10° WSW 18:56:53 80° NNW 18:57:17 70° NE
Cosmos 2221 Rocket 3.5 18:52:27 10° N 18:56:58 62° ENE 18:56:58 62° ENE
STARLINK-28 4.0 18:53:55 10° WNW 18:56:36 41° NNW 18:56:36 41° NNW
COSMOS 2487 4.2 18:54:05 10° NW 18:57:12 31° WSW 18:59:29 15° SSW
STARLINK-80 3.4 18:53:28 10° WNW 18:57:10 70° N 18:57:10 70° N
STARLINK-58 3.9 18:54:53 10° WNW 18:58:11 46° N 18:58:11 46° N
Cosmos 1943 Rocket 3.8 18:54:01 10° WSW 18:58:58 32° NW 19:03:55 10° NNE
Cosmos 372 Rocket 4.3 18:54:24 10° NNW 18:59:29 46° ENE 18:59:33 46° ENE
CZ-2C R/B 3.3 18:54:09 10° SSE 18:59:59 84° WSW 19:05:42 10° NNW
STARLINK-62 4.0 18:56:36 10° WNW 18:59:48 46° NNW 18:59:48 46° NNW
Cosmos 2034 Rocket 3.8 18:55:03 10° S 19:01:12 80° E 19:07:23 10° NNE
STARLINK-34 4.0 18:58:13 10° WNW 19:01:22 45° NNW 19:01:22 45° NNW
Okean 1 4.0 18:57:53 10° NNW 19:01:49 53° W 19:04:38 17° SSW
STARLINK-1011 3.6 18:57:42 10° WSW 19:01:51 76° NNW 19:02:03 74° NNE
Timation 2 Rocket 4.3 18:55:37 10° NNW 19:02:30 77° WSW 19:07:10 22° SSE
Cosmos 468 Rocket 3.9 18:57:37 10° SSW 19:02:54 84° ESE 19:08:16 10° NNE
Lacrosse 5 rocket 2.3 18:59:23 10° NW 19:03:44 41° NNE 19:04:00 40° NNE
Cosmos 1515 4.2 19:00:06 10° N 19:03:00 50° N 19:03:00 50° N
STARLINK-42 4.3 19:00:54 10° WNW 19:03:16 36° NW 19:03:16 36° NW
Cosmos 2227 Rocket 2.8 19:00:34 10° NNW 19:05:52 39° NE 19:05:52 39° NE
Genesis I 4.0 19:02:34 10° NNW 19:05:28 42° N 19:05:28 42° N
STARLINK-1036 3.6 19:02:42 10° WSW 19:06:52 73° NNW 19:06:52 73° NNW
BREEZE-M DEB (TANK) 4.0 19:04:26 10° W 19:06:06 39° WSW 19:06:06 39° WSW
SPOT 3 Rocket 3.4 19:05:25 39° SSE 19:07:27 87° ENE 19:12:42 10° NNW
Okean 3 3.9 19:04:10 10° N 19:07:24 49° NNE 19:07:24 49° NNE
Cosmos 2298 Rocket 4.2 19:03:10 10° NNW 19:08:19 52° ENE 19:08:19 52° ENE
Meteor 1-14 Rocket 4.2 19:06:06 10° SSW 19:11:37 77° WNW 19:17:14 10° N
STARLINK-1044 3.8 19:07:41 10° WSW 19:11:37 69° NW 19:11:37 69° NW
STARLINK-1031 3.9 19:09:01 10° W 19:12:46 63° NW 19:12:46 63° NW
Cosmos 1898 Rocket 4.3 19:08:36 10° NNW 19:13:36 50° WSW 19:17:01 19° S
Lacrosse 4 Rocket 4.4 19:13:32 10° NW 19:14:41 11° NNW 19:15:50 10° N
Gbstr 26 Del rocket 3.5 19:11:03 10° SW 19:14:28 52° SSW 19:14:28 52° SSW
Resurs 1-3 3.9 19:19:42 59° N 19:19:42 59° N 19:23:18 10° NNW
STARLINK-24 4.4 19:15:45 10° WNW 19:19:06 46° NNW 19:19:06 46° NNW
STARLINK-1037 4.2 19:17:37 10° W 19:21:07 56° WNW 19:21:07 56° WNW
Cosmos 1428 Rocket 4.5 19:16:05 10° N 19:21:52 57° ENE 19:21:52 57° ENE
Cosmos 1092 Rocket 3.9 19:16:09 10° N 19:22:33 84° E 19:24:43 45° SSE
USA 234 3.5 19:21:54 47° ENE 19:23:29 58° NNE 19:29:52 10° WNW
Cosmos 2150 Rocket 4.2 19:21:06 10° NNW 19:25:58 62° NNE 19:25:58 62° NNE
STARLINK-1059 4.4 19:22:41 10° W 19:25:59 50° WNW 19:25:59 50° WNW
Cosmos 1634 Rocket 4.3 19:29:14 49° NE 19:29:14 49° NE 19:34:06 10° NNE
Cosmos 1763 Rocket 3.6 19:23:11 10° SSW 19:28:25 75° WNW 19:33:44 10° NNE
Meteor 2-4 Rocket 4.0 19:23:58 10° NNW 19:29:51 73° W 19:32:13 38° S
Cosmos 2219 3.1 19:24:12 10° NNW 19:29:58 77° ENE 19:29:58 77° ENE
NOSS 3-2 (A) 3.9 19:25:08 10° NW 19:32:27 72° NE 19:34:00 59° ESE
NOSS 3-2 (C) 4.1 19:27:01 10° NW 19:34:10 58° NE 19:35:19 53° ENE
Resurs 01 Rocket 2.8 19:38:52 37° NNW 19:38:52 37° NNW 19:41:35 10° NNW
Cosmos 2195 Rocket 4.3 19:31:31 10° N 19:37:41 89° W 19:38:26 71° S
Cosmos 1125 Rocket 4.4 19:35:23 10° NNW 19:38:58 38° N 19:38:58 38° N
Cosmos 2369 Rocket 4.5 19:45:14 10° W 19:49:31 21° NW 19:53:51 10° N
Cosmos 2263 Rocket 4.2 19:45:52 10° N 19:48:31 17° NNE 19:48:31 17° NNE
Lacrosse 5 3.6 19:45:40 10° SW 19:47:37 24° SW 19:47:37 24° SW
CENTAUR R/B 3.1 19:46:24 10° NW 19:54:07 62° NE 19:54:46 60° ENE
CZ-2C R/B 4.4 19:50:51 10° NNE 19:52:39 21° NNE 19:52:39 21° NNE
SJ 16-02 3.8 19:56:26 10° NW 19:59:25 18° W 20:00:55 15° WSW
H-2A R/B 4.3 20:00:06 10° SW 20:04:18 23° W 20:08:33 10° NW
ATLAS 3B R/B 3.3 19:59:26 10° NW 20:05:09 45° NNE 20:05:09 45° NNE
USA 238 DEB 4.2 20:24:22 10° NW 20:30:43 59° W 20:30:43 59° W
Cosmos 2297 Rocket 3.4 20:25:58 10° NW 20:29:41 38° WNW 20:29:41 38° WNW
USA 238 4.2 20:24:28 10° NW 20:30:47 59° W 20:30:47 59° W
Lacrosse 5 rocket 4.3 20:38:39 10° WNW 20:39:39 16° WNW 20:39:39 16° WNW
Cosmos 2227 Rocket 3.9 20:44:40 10° NW 20:47:42 29° WNW 20:47:42 29° WNW
USA 234 4.4 21:09:15 37° WNW 21:09:15 37° WNW 21:12:59 10° WNW
CENTAUR R/B 4.3 21:37:16 10° NW 21:41:57 36° WNW 21:41:57 36° WNW
